Погода в Тикси

Погода в Тикси : погода сейчас, прогноз погоды и архив. Всё, что Вы хотите узнать о погоде в Тикси!

Хотите узнать прогноз погоды в Тикси? Тогда Вам сюда: Погода в Тикси

Поиск расширенной информации на нашем сайте:

Другие новости

Новости СМИ2

Главная страница сайта

Новости сайта

02.10.2013

Напоминаем, что на нашем новом сайте вы можете получить высокодетализированные прогнозы погоды по пунктам России, СНГ и мира (включающие важные для авиации метеовеличины, такие как направление и скорость ветра, видимость, явления погоды, количество и форма облачности, нижняя и верхняя граница облачности), а также ознакомиться с разнообразными материалами по авиационной метеорологии и подборкой полезных ссылок на эту тему.

Сайт Метеоцентр.Азия посвящён разработке технологий оптимизации авиаметеорологического обслуживания, включая проектирование и перспективное создание нескольких автоматизированных авиаметеорологических систем:
- система выпуска высокодетальных прогностических карт явлений погоды для нижнего воздушного пространства по России и ближнему зарубежью;
- система верификации прогнозов TAF (выпускаемых синоптиками официальных АМСГ РФ и ближнего зарубежья) и AUTOTAF (выпускаемых сайтом Метеоцентр.Азия) - выявление ошибок, онлайн-сопоставление с фактической погодой METAR, автоматическое внесение коррективов в прогнозы при резком отклонении фактической погоды от прогноза, подсчёт оправдываемости прогнозов по элементам и в целом;
- система обработки, анализа и отображения авиаметеорологической информации для применения провайдерами метеорологической информации.

Рекомендуем: Запчасти КамАЗ на экспорт: KAMAZ spare parts and details

Погода в Тикси - сегодня

Время (UTC), дата Ветер
(°,м/с) 
Видим.   Явления Облачность Т
(°С)
Тd
(°С)
f(%) Тe
(°С)
Pmin
(гПа)
dP
(гПа)
Po
(мм)
O2
(г/м3)
Тmin Tmax R s Состояние
почвы
21 26.03.17 230 (ЮЗ) 15-19{27}  4000 м  метель  10/5 1000 м средняя 
[Sc|Ac und]
-3.4 -5 89 -10  994.9  746  305           
00 27.03.17 230 (ЮЗ) 13  20000 м  позёмок  10/3 1000 м средняя, верхняя 
[Sc|Ac lent|Ci fib]
-2.6 -5.6 80 -9  995.2  0.3  746  304  -3.9      20  неравномерный
сухой снег
100% 
03 27.03.17 240 (ЮЗ) 11-16{23}  20000 м  позёмок  10/0 средняя 
[Ac lent]
-2.1 -3.9 87 -8  994.3  -0.9  745  303           
06 27.03.17 250 (З) 12-17{18}  20000 м  позёмок  10/0 средняя 
[Ac lent]
-0.1 -5.1 69 -6  993.8  -0.4  745  301           
09 27.03.17 260 (З) 4{17}  20000 м    10/0 средняя 
[Ac lent]
-1.4 -7.7 62 -4  995.7  1.8  746  303           
12 27.03.17 250 (З) 10 км  снежные кристаллы  10/0 средняя 
[Ac und]
-4.6 -6.2 89 -4  997.1  1.4  747  307    +0.7  0.0     
15 27.03.17 320 (СЗ) 4000 м  слаб. снег  10/4 600 м средняя 
[Sc|Ac und]
-8.6 -10.1 89 -14  999.7  2.6  749  313           
18 27.03.17 280 (З) 14-17{18}  1000 м  метель{снег}  10/0 средняя 
[Ac und]
-11.4 -13.4 85 -20  1001.6  1.9  751  317           
21 27.03.17 250 (З) 7-10{17}  20000 м  позёмок  3/0 средняя 
[Ac lent]
-14.9 -17.9 78 -22  1006.3  4.7  754  323           
00 28.03.17 250 (З) 12-16{16}  4000 м  метель  10/0 верхняя 
[Cs]
-13.6 -15.3 87 -22  1006.9  0.6  755  321  -15.5    0.5  18  неравномерный
сухой снег
100% 
03 28.03.17 240 (ЮЗ) 16-20{21}  0200 м  сильная метель  8/0 верхняя 
[Ci fib]
-12.2 -13 94 -22  1008.6  1.7  756  320           
06 28.03.17 230 (ЮЗ) 11-15{22}  4000 м  метель  9/0 верхняя 
[Cc]
-10.4 -12.3 86 -18  1011.8  3.2  758  319           
09 28.03.17 230 (ЮЗ) 9-12{16}  20000 м  позёмок  10/0 средняя, верхняя 
[Ac trans|Ci fib]
-10.3 -12.3 85 -17  1012.7  0.9  759  319           
12 28.03.17 240 (ЮЗ) 10-13{14}  4000 м  метель  10/0 средняя, верхняя 
[Ac trans|Ci fib]
-8.9 -10.9 85 -16  1012.5  -0.2  759  317    -8.7       
15 28.03.17 240 (ЮЗ) 16-22{23}  1000 м  метель  10/0 средняя, верхняя 
[Ac trans|Ci fib]
-8.5 -10 89 -17  1010.9  -1.6  758  316           
18 28.03.17 200 (Ю) 16-20{24}  1000 м  метель  10/0 средняя, верхняя 
[Ac trans|Ci fib]
-8.7 -11.1 83 -17  1011.4  0.5  758  317           
21 28.03.17 240 (ЮЗ) 17-22{24}  1000 м  метель  10/0 средняя 
[Ac und]
-8.4 -10.3 86 -17  1008.5  -2.9  756  315           
00 29.03.17 220 (ЮЗ) 15-20{27}  2000 м  метель  10/0 средняя 
[Ac und]
-7.3 -10.3 79 -15  1009  0.5  756  314  -9.4      17  неравномерный
сухой снег
100% 
03 29.03.17 230 (ЮЗ) 17-22{24}  2000 м  метель  10/0 средняя, верхняя 
[Ac trans|Ci fib]
-6.1 -8.8 81 -14  1007.2  -1.8  755  312           
06 29.03.17 230 (ЮЗ) 18-22{25}  2000 м  метель  10/0 средняя 
[Ac und]
-4.6 -7.4 81 -13  1006.6  -0.6  754  310           
09 29.03.17 230 (ЮЗ) 15-20{22}  4000 м  метель  10/0 средняя 
[Ac und]
-4.4 -7.1 81 -12  1008.1  1.5  755  310           
12 29.03.17 240 (ЮЗ) 10-13{20}  20000 м  позёмок  10/0 средняя 
[Ac und]
-4.8 -8.4 76 -11  1009.1  756  311    -4.3       
15 29.03.17 220 (ЮЗ) 7{13}  20000 м  позёмок  10/0 верхняя 
[Cs]
-6 -8.3 84 -11  1009.4  0.3  756  312           
18 29.03.17 200 (Ю) 20000 м  позёмок  10/0 средняя, верхняя 
[Ac trans|Cs]
-6.3 -8.7 83 -11  1009.4  756  313           
21 29.03.17 220 (ЮЗ) 8-10{12}  20000 м  позёмок  10/0 средняя, верхняя 
[Ac trans|Ci fib]
-3.1 -5.5 83 -8  1008  -1.4  755  308           
Время (UTC), дата Ветер
(°,м/с) 
Видим.   Явления Облачность Т
(°С)
Тd
(°С)
f(%) Тe
(°С)
Pmin
(гПа)
dP
(гПа)
Po
(мм)
O2
(г/м3)
Тmin Tmax R s Состояние
почвы

Для получения пояснительной информации подведите курсор к названию столбца.

ПОГОДА в Тикси - архив

Всё, что Вы хотите узнать о погоде в Тикси - удобно и подробно!

Выберите нужную дату (начиная с 1 января 2015* года) и нажмите кнопку "Найти".
Будут отображены архивные сводки погоды по пункту Тикси, начиная с указанной даты.


Отображать данные в формате CSV (для использования в таблицах Excel)


Внимание! Наш архив погоды предназначен исключительно для личного некоммерческого использования в познавательных целях. Если Вам необходимы официальные справки о состоянии погоды (для производственных, юридических, коммерческих и т.п. целей), обращайтесь в органы Росгидромета.

*Примечание: данная дата относится к архиву по метеостанциям СССР (Россия, СНГ, Балтия).
Архив по метеостанциям Зарубежной Европы и Азии (кроме Китая) хранится 10 дней, по другим регионам земного шара (Китай, Африка, Америка, Австралия, Океания) - 1 день.

Тикси - район местоположения метеостанции


Название, широта, долгота, высота метеостанции:
Тикси (посёлок) 71.6°ш. 128.9°д. 7 м над ур. моря [Российская Федерация]

Дополнительная информация

В oтличие oт бoльшинства пoгoдных сайтoв мы публикуем пoдрoбную метеoинфoрмацию в детальнoм прoфессиoнальнoм фoрмате.

Характеристики температуры и влажнoсти вoздуха измеряются на высoте 2 м в тени вдали oт зданий и деревьев.
Скoрoсть ветра измеряется на высoте 10 м (на урoвне рoста челoвека скoрoсть ветра ниже в 1.5-2 раза). Если метеoстанция нахoдится в гoрoде или в лесу, тo скoрoсть ветра занижена на 2-4 м/с пo сравнению с oткрытым местoм. Скoрoсть ветра над акватoриями крупных рек и oзёр, а также на вершинах хoлмoв на 2-5 м/с выше, чем в oбычных услoвиях.
Атмoсфернoе давление в разных тoчках местнoсти мoжет значительнo oтличаться oт давления на метеoстанции, в зависимoсти oт услoвий рельефа (при пoдъёме на 10 м давление пoнижается примернo на 1 мм рт.ст.).